When you browse on this site, cookies collect data to enhance your experience and personalize the content and advertising you see.
Visit our Privacy Policy to learn more. By continuing to use the site, you agree to this use of cookies and data.
  • In Italy
  • List of Countries
  • For 7 days
  • Water Temperature
  • Satellite Maps
  • Weather Map
  • Weather Widgets
  • user-avatar
    Login

    Hourly Weather Gurzuf

    Today, 14 December, Friday

    Time Temperature Precipitation Wind Pressure Humidity
    00:00 -4°C° 0.1 mm 5 mps 702 mmHg 82%
    01:00 -4°C° 0.1 mm 5 mps 703 mmHg 82%
    02:00 -4°C° 0.1 mm 5 mps 703 mmHg 81%
    03:00 -4°C° 0.1 mm 5 mps 703 mmHg 81%
    04:00 -4°C° 0.1 mm 5 mps 703 mmHg 81%
    05:00 -4°C° 0.1 mm 5 mps 703 mmHg 80%
    06:00 -4°C° 0.1 mm 5 mps 703 mmHg 81%
    07:00 -3°C° 0.1 mm 4 mps 703 mmHg 81%
    08:00 -3°C° 0.1 mm 4 mps 703 mmHg 81%
    09:00 -2°C° 0 mm 4 mps 704 mmHg 78%
    10:00 -1°C° 0 mm 4 mps 704 mmHg 74%
    11:00 0°C° 0 mm 4 mps 704 mmHg 71%
    12:00 0°C° 0 mm 4 mps 704 mmHg 70%
    13:00 0°C° 0 mm 4 mps 705 mmHg 69%
    14:00 +1°C° 0 mm 3 mps 705 mmHg 68%
    15:00 0°C° 0 mm 3 mps 705 mmHg 71%
    16:00 -1°C° 0 mm 2 mps 705 mmHg 73%
    17:00 -2°C° 0 mm 2 mps 705 mmHg 76%
    18:00 0°C° 0 mm 1 mps 705 mmHg 76%
    19:00 0°C° 0 mm 1 mps 705 mmHg 76%
    20:00 0°C° 0 mm 1 mps 705 mmHg 77%
    21:00 0°C° 0 mm 1 mps 705 mmHg 77%
    22:00 0°C° 0 mm 1 mps 705 mmHg 78%
    23:00 -2°C° 0 mm 2 mps 705 mmHg 79%

    Tomorrow, 15 December, Saturday

    Time Temperature Precipitation Wind Pressure Humidity
    00:00 -1°C° 0 mm 2 mps 705 mmHg 80%
    01:00 -1°C° 0 mm 2 mps 706 mmHg 81%
    02:00 -1°C° 0 mm 2 mps 706 mmHg 81%
    03:00 -1°C° 0.1 mm 2 mps 706 mmHg 82%
    04:00 -1°C° 0.1 mm 3 mps 705 mmHg 83%
    05:00 -1°C° 0.1 mm 3 mps 705 mmHg 84%
    06:00 -1°C° 0.1 mm 3 mps 705 mmHg 85%
    07:00 -2°C° 0.1 mm 4 mps 706 mmHg 87%
    08:00 -2°C° 0.1 mm 4 mps 706 mmHg 89%
    09:00 -2°C° 0.4 mm 4 mps 706 mmHg 89%
    10:00 -1°C° 0.4 mm 5 mps 706 mmHg 89%
    11:00 -1°C° 0.4 mm 5 mps 706 mmHg 88%
    12:00 -1°C° 0.3 mm 5 mps 706 mmHg 88%
    13:00 0°C° 0.3 mm 5 mps 706 mmHg 88%
    14:00 0°C° 0.3 mm 5 mps 706 mmHg 87%
    15:00 -2°C° 0 mm 6 mps 705 mmHg 89%
    16:00 -2°C° 0 mm 6 mps 705 mmHg 90%
    17:00 -3°C° 0 mm 6 mps 705 mmHg 92%
    18:00 -3°C° 0.1 mm 6 mps 705 mmHg 92%
    19:00 -3°C° 0.1 mm 6 mps 705 mmHg 92%
    20:00 -2°C° 0.1 mm 6 mps 706 mmHg 93%
    21:00 -3°C° 0 mm 6 mps 705 mmHg 92%
    22:00 -3°C° 0 mm 6 mps 705 mmHg 91%
    23:00 -3°C° 0 mm 6 mps 705 mmHg 90%

    Day after tomorrow, 16 December, Sunday

    Time Temperature Precipitation Wind Pressure Humidity
    00:00 -2°C° 0 mm 6 mps 705 mmHg 90%
    01:00 -2°C° 0 mm 6 mps 705 mmHg 89%
    02:00 -2°C° 0 mm 7 mps 705 mmHg 89%
    03:00 -2°C° 0 mm 7 mps 705 mmHg 90%
    04:00 -2°C° 0 mm 7 mps 704 mmHg 91%
    05:00 -2°C° 0 mm 7 mps 704 mmHg 93%
    06:00 -2°C° 0 mm 7 mps 704 mmHg 92%
    07:00 -2°C° 0 mm 7 mps 704 mmHg 92%
    08:00 -2°C° 0 mm 7 mps 704 mmHg 92%
    09:00 -1°C° 0 mm 7 mps 704 mmHg 89%
    10:00 -1°C° 0 mm 7 mps 704 mmHg 85%
    11:00 0°C° 0 mm 7 mps 704 mmHg 82%
    12:00 0°C° 0 mm 7 mps 704 mmHg 81%
    13:00 0°C° 0 mm 7 mps 704 mmHg 79%
    14:00 0°C° 0 mm 7 mps 703 mmHg 78%
    15:00 -1°C° 0 mm 8 mps 703 mmHg 80%
    16:00 -2°C° 0 mm 8 mps 703 mmHg 81%
    17:00 -2°C° 0 mm 8 mps 703 mmHg 83%
    18:00 -4°C° 0 mm 8 mps 703 mmHg 82%
    19:00 -4°C° 0 mm 8 mps 703 mmHg 81%
    20:00 -4°C° 0 mm 8 mps 703 mmHg 81%
    21:00 -4°C° 0 mm 8 mps 703 mmHg 80%
    22:00 -4°C° 0 mm 8 mps 703 mmHg 80%
    23:00 -4°C° 0 mm 8 mps 703 mmHg 80%

    17 December, Monday

    Time Temperature Precipitation Wind Pressure Humidity
    00:00 -3°C° 0 mm 7 mps 703 mmHg 80%
    01:00 -4°C° 0 mm 7 mps 703 mmHg 80%
    02:00 -4°C° 0 mm 7 mps 702 mmHg 81%
    03:00 -4°C° 0 mm 7 mps 702 mmHg 81%
    04:00 -4°C° 0 mm 7 mps 702 mmHg 82%
    05:00 -4°C° 0 mm 7 mps 702 mmHg 82%
    06:00 -4°C° 0 mm 7 mps 702 mmHg 83%
    07:00 -4°C° 0 mm 7 mps 702 mmHg 83%
    08:00 -4°C° 0 mm 7 mps 702 mmHg 83%
    09:00 -3°C° 0 mm 7 mps 702 mmHg 80%
    10:00 -3°C° 0 mm 7 mps 702 mmHg 78%
    11:00 -2°C° 0 mm 7 mps 702 mmHg 75%
    12:00 -2°C° 0 mm 7 mps 702 mmHg 75%
    13:00 -2°C° 0 mm 7 mps 702 mmHg 76%
    14:00 -2°C° 0 mm 7 mps 702 mmHg 76%
    15:00 -3°C° 0 mm 6 mps 702 mmHg 79%
    16:00 -4°C° 0 mm 6 mps 702 mmHg 83%
    17:00 -5°C° 0 mm 6 mps 702 mmHg 86%
    18:00 -5°C° 0 mm 6 mps 702 mmHg 86%
    19:00 -5°C° 0 mm 6 mps 702 mmHg 86%
    20:00 -5°C° 0 mm 6 mps 702 mmHg 86%
    21:00 -5°C° 0 mm 6 mps 702 mmHg 86%
    22:00 -5°C° 0 mm 5 mps 702 mmHg 86%
    23:00 -5°C° 0 mm 5 mps 702 mmHg 86%

    18 December, Tuesday

    Time Temperature Precipitation Wind Pressure Humidity
    00:00 -5°C° 0 mm 5 mps 702 mmHg 86%
    01:00 -5°C° 0 mm 5 mps 703 mmHg 87%
    02:00 -5°C° 0 mm 5 mps 703 mmHg 87%
    03:00 -4°C° 0 mm 4 mps 703 mmHg 88%
    04:00 -4°C° 0 mm 4 mps 703 mmHg 89%
    05:00 -4°C° 0 mm 4 mps 703 mmHg 89%
    06:00 -4°C° 0 mm 4 mps 703 mmHg 90%
    07:00 -4°C° 0 mm 4 mps 703 mmHg 90%
    08:00 -4°C° 0 mm 4 mps 703 mmHg 91%
    09:00 -3°C° 0 mm 4 mps 704 mmHg 87%
    10:00 -3°C° 0 mm 4 mps 704 mmHg 84%
    11:00 -2°C° 0 mm 4 mps 704 mmHg 81%
    12:00 -2°C° 0 mm 4 mps 704 mmHg 81%
    13:00 -2°C° 0 mm 4 mps 704 mmHg 82%
    14:00 -1°C° 0 mm 3 mps 704 mmHg 82%
    15:00 -2°C° 0 mm 4 mps 704 mmHg 85%
    16:00 -3°C° 0 mm 4 mps 704 mmHg 88%
    17:00 -3°C° 0 mm 4 mps 704 mmHg 91%
    18:00 -3°C° 0 mm 4 mps 704 mmHg 91%
    19:00 -4°C° 0 mm 4 mps 704 mmHg 91%
    20:00 -4°C° 0 mm 4 mps 704 mmHg 92%
    21:00 -4°C° 0 mm 4 mps 704 mmHg 92%
    22:00 -4°C° 0 mm 4 mps 704 mmHg 92%
    23:00 -4°C° 0 mm 4 mps 704 mmHg 92%

    19 December, Wednesday

    Time Temperature Precipitation Wind Pressure Humidity
    00:00 -4°C° 0 mm 4 mps 704 mmHg 92%
    01:00 -4°C° 0 mm 4 mps 704 mmHg 92%
    02:00 -4°C° 0 mm 4 mps 704 mmHg 93%
    03:00 -4°C° 0 mm 4 mps 704 mmHg 93%
    04:00 -4°C° 0 mm 4 mps 704 mmHg 94%
    05:00 -4°C° 0 mm 4 mps 704 mmHg 94%
    06:00 -4°C° 0 mm 4 mps 704 mmHg 94%
    07:00 -4°C° 0 mm 4 mps 705 mmHg 93%
    08:00 -4°C° 0 mm 4 mps 705 mmHg 93%
    09:00 -3°C° 0 mm 4 mps 705 mmHg 90%
    10:00 -2°C° 0 mm 4 mps 705 mmHg 87%
    11:00 -2°C° 0 mm 4 mps 705 mmHg 84%
    12:00 -2°C° 0 mm 4 mps 705 mmHg 84%
    13:00 -2°C° 0 mm 4 mps 705 mmHg 85%
    14:00 -1°C° 0 mm 4 mps 705 mmHg 85%
    15:00 -2°C° 0 mm 4 mps 705 mmHg 88%
    16:00 -3°C° 0 mm 4 mps 704 mmHg 91%
    17:00 -4°C° 0 mm 5 mps 704 mmHg 94%
    18:00 -4°C° 0 mm 5 mps 704 mmHg 93%
    19:00 -3°C° 0 mm 4 mps 704 mmHg 93%
    20:00 -3°C° 0 mm 4 mps 705 mmHg 93%
    21:00 -3°C° 0.2 mm 4 mps 704 mmHg 93%
    22:00 -3°C° 0.2 mm 4 mps 704 mmHg 94%
    23:00 -3°C° 0.2 mm 4 mps 704 mmHg 94%
    Show more